EST,Max TemperatureF,Mean TemperatureF,Min TemperatureF,Max Dew PointF,MeanDew PointF,Min DewpointF,Max Humidity, Mean Humidity, Min Humidity, Max Sea Level PressureIn, Mean Sea Level PressureIn, Min Sea Level PressureIn, Max VisibilityMiles, Mean VisibilityMiles, Min VisibilityMiles, Max Wind SpeedMPH, Mean Wind SpeedMPH, Max Gust SpeedMPH,PrecipitationIn, CloudCover, Events, WindDirDegrees
2012-12-1,59,44,28,39,33,23,93,73,48,30.33,30.28,30.23,10,10,10,13,2,18,0.00,1,,202
2012-12-2,60,50,41,54,46,37,100,81,52,30.23,30.16,30.09,10,8,2,17,7,26,0.00,5,,210
2012-12-3,60,55,50,55,54,46,100,93,77,30.24,30.20,30.17,10,6,0,8,3,,0.00,6,,194
2012-12-4,64,54,44,55,50,43,100,83,64,30.18,30.12,30.02,10,10,2,17,6,26,0.00,5,,209
2012-12-5,44,34,23,43,30,19,100,79,57,30.36,30.27,30.15,10,10,5,14,6,18,0.00,4,,291
2012-12-6,46,32,17,34,23,14,100,78,43,30.33,30.19,30.04,10,10,10,7,1,,0.00,1,,91
2012-12-7,51,44,37,48,45,34,100,94,81,30.04,29.98,29.88,10,6,0,10,1,,0.00,8,,218
2012-12-8,55,50,44,52,49,39,100,91,76,30.09,29.92,29.86,10,9,2,10,5,16,0.00,8,,240
2012-12-9,55,47,39,54,43,34,100,87,76,30.12,30.00,29.77,10,10,5,10,7,16,0.00,8,,95
2012-12-10,57,45,33,54,46,32,100,90,82,29.83,29.69,29.57,10,9,2,15,7,22,0.00,8,,228
2012-12-11,37,32,28,34,30,25,100,84,70,30.22,30.04,29.82,10,9,3,9,6,,0.00,7,,251
2012-12-12,39,30,21,27,22,18,100,80,48,30.42,30.36,30.23,10,10,5,6,1,,0.00,1,,220
2012-12-13,44,30,15,28,20,12,100,77,37,30.43,30.36,30.28,10,9,6,6,0,,0.00,0,,176
2012-12-14,50,36,21,28,23,16,93,71,34,30.31,30.26,30.23,10,10,10,10,2,,0.00,0,,225
2012-12-15,48,37,26,34,27,23,93,66,37,30.23,30.09,29.91,10,10,10,7,1,,0.00,3,,149
2012-12-16,57,52,46,48,43,30,88,69,50,29.90,29.80,29.73,10,10,9,9,5,,0.00,7,,188
2012-12-17,55,50,44,52,48,43,100,91,82,29.78,29.69,29.53,10,8,1,9,4,17,0.00,7,,200
2012-12-18,46,40,33,45,35,28,93,82,65,29.84,29.71,29.53,10,10,5,14,8,21,0.00,6,,244
2012-12-19,44,37,30,36,34,28,93,81,70,30.15,29.99,29.77,10,9,5,10,5,16,0.00,8,,241
2012-12-20,46,40,33,43,36,30,93,80,57,30.12,29.74,29.37,10,9,4,20,7,30,0.00,4,,120
2012-12-21,39,34,28,34,25,21,93,78,60,29.72,29.48,29.39,10,8,1,25,16,33,0.00,8,,243
2012-12-22,32,28,23,27,21,18,86,70,60,30.10,29.98,29.73,10,9,3,17,11,30,0.00,8,,258
2012-12-23,39,28,17,25,20,16,93,76,49,30.07,29.97,29.90,10,10,10,12,4,16,0.00,0,,222
2012-12-24,37,27,17,36,27,14,100,90,70,29.99,29.88,29.76,10,8,1,13,2,16,0.00,4,,13
2012-12-25,35,32,30,34,29,25,100,84,70,30.19,30.10,29.90,10,8,2,10,7,,0.00,8,,342
2012-12-26,32,30,28,28,27,25,93,86,75,30.16,29.78,29.57,10,7,1,20,10,28,0.00,8,,49
2012-12-27,30,29,28,27,26,21,93,88,69,30.10,29.91,29.61,10,8,2,14,8,23,0.00,8,,266
2012-12-28,30,26,21,25,21,19,93,78,69,30.15,30.07,29.87,10,10,7,7,4,,0.00,6,,346
2012-12-29,30,29,28,28,27,21,100,90,74,29.94,29.76,29.63,10,5,0,14,4,17,0.00,8,,286
2012-12-30,28,26,23,27,20,18,93,78,69,30.35,30.24,29.95,10,9,3,16,11,23,0.00,8,,250
2012-12-31,33,25,17,28,22,16,93,81,56,30.32,30.14,30.02,10,9,1,16,7,22,0.00,4,,217